Regional Weather Roundup
Issued by NWS Tiyan, Guam

Home | Current Version | Previous Version | Text Only | Print | Product List | Glossary On
Versions: 1 2 3 4 5 6 7 8 9 10 11 12 13 14 15 16 17 18 19 20 21 22 23 24 25 26 27 28 29 30 31 32 33 34 35 36 37 38 39 40 41 42 43 44 45 46 47 48 49 50
000
ASGM40 PGUM 210612
RWRGUM
WEATHER ROUNDUP FOR THE MARIANAS
NATIONAL WEATHER SERVICE TIYAN GU
400 PM CHST SUN DEC 21 2014

GUZ001>004-210700-
MARIANA ISLANDS-

CITY           SKY/WX    TMP DP  RH WIND       PRES   REMARKS
GUAM AIRPORT   MOSUNNY   86  73  66 E20G28    29.83S HX  93
ANDERSEN AFB   PTSUNNY   82  73  74 E23       29.84R
ROTA AIRPORT   MOSUNNY   82  75  78 E21G26    29.85S
TINIAN AP      MOSUNNY   84  73  70 E16       29.84S HX  91
SAIPAN AP      MOSUNNY   84  73  70 E18G28    29.85S HX  91

$$




USA.gov is the U.S. government's official web portal to all federal, state and local government web resources and services.